Tracking 18957 objects as of 23-Jan-2018
HD Live streaming from Space Station
objects crossing your sky now

OPS 9312 (IDSCS 2)

Track OPS 9312 (IDSCS 2) now!
OPS 9312 (IDSCS 2) is classified as:


NORAD ID: 2216
Int'l Code: 1966-053C
Perigee: 33,672.6 km
Apogee: 33,916.4 km
Inclination: 3.2 °
Period: 1,335.2 minutes
Semi major axis: 40165 km
RCS: 0.3162 m2 (medium)
Launch date: June 16, 1966
Source: United States (US)
Launch site: AIR FORCE EASTERN TEST RANGE (AFETR)
aabbcc
Your satellite tracking list
Your tracking list is empty




NASA's NSSDC Master Catalog

Two Line Element Set (TLE):
1 02216U 66053C   18014.42675056 -.00000101  00000-0  00000+0 0  9992
2 02216   3.1933  59.2458 0030349 151.2017 281.9325  1.07850827202801
Source of the keplerian elements: AFSPC